Silver City, NM

12:50 AM MST on December 14, 2019 (GMT -0700)
Grant County

Weather History for KSVC - October, 2019

Change the Weather History Date:

Thursday, October 31, 2019

  Actual Average (KDMN) Record (KDMN)
Temperature  
Mean Temperature 32 °F -  
Max Temperature 53 °F 72 °F 87 °F (1950)
Min Temperature 11 °F 36 °F 22 °F (1993)
Degree Days  
Heating Degree Days 34    
Moisture  
Dew Point -7 °F    
Average Humidity 20    
Maximum Humidity 40    
Minimum Humidity 8    
Precipitation  
Precipitation 0.00 in - - ()
Sea Level Pressure  
Sea Level Pressure 30.34 in    
Wind  
Wind Speed 6 mph (NE)    
Max Wind Speed 12 mph    
Max Gust Speed -    
Visibility 10 miles    
Events      
Averages and records for this station are not official NWS values.
T = Trace of Precipitation, MM = Missing Value Source: NWS Daily Summary

Daily Weather History Graph

Daily Weather History Graph

Search for Another Location

Airport or City:

Astronomy

Oct. 31, 2019 Rise Set
Actual Time 7:29 AM MDT 6:22 PM MDT
Civil Twilight 7:03 AM MDT 6:48 PM MDT
Nautical Twilight 6:34 AM MDT 7:17 PM MDT
Astronomical Twilight 6:05 AM MDT 7:46 PM MDT
Moon 11:11 AM MDT (10/31) 9:31 PM MDT (10/31)
Length of Visible Light 11h 44m
Length of Day
10h 53m
Waxing Crescent, 16% of the Moon is Illuminated
Oct 31
Waxing Crescent
Nov 4
First Quarter
Nov 12
Full
Nov 19
Last Quarter
Nov 26
New

Hourly Weather History & Observations

Time (MDT) Temp. Windchill Dew Point Humidity Pressure Visibility Wind Dir Wind Speed Gust Speed Precip Events Conditions
12:15 AM 22.1 °F 14.7 °F -8.3 °F 26% 30.33 in 10.0 mi NW 5.8 mph - N/A   Clear
12:35 AM 19.8 °F - -7.6 °F 30% 30.32 in 10.0 mi Calm Calm - N/A   Clear
12:55 AM 23.0 °F 18.4 °F -6.3 °F 27% 30.34 in 10.0 mi NE 3.5 mph - N/A   Clear
1:15 AM 21.9 °F 14.5 °F -6.9 °F 28% 30.34 in 10.0 mi NNE 5.8 mph - N/A   Clear
1:35 AM 20.3 °F 12.5 °F -6.9 °F 30% 30.34 in 10.0 mi NNE 5.8 mph - N/A   Clear
1:55 AM 20.8 °F 14.4 °F -6.0 °F 31% 30.34 in 10.0 mi NNE 4.6 mph - N/A   Clear
2:15 AM 20.5 °F 12.8 °F -5.8 °F 31% 30.34 in 10.0 mi North 5.8 mph - N/A   Clear
2:35 AM 20.5 °F 10.8 °F -7.2 °F 29% 30.34 in 10.0 mi North 8.1 mph - N/A   Clear
2:55 AM 18.9 °F 8.0 °F -7.4 °F 31% 30.34 in 10.0 mi NNW 9.2 mph - N/A   Clear
3:15 AM 19.9 °F 11.1 °F -7.6 °F 29% 30.34 in 10.0 mi NW 6.9 mph - N/A   Clear
3:35 AM 20.1 °F 8.8 °F -7.6 °F 29% 30.34 in 10.0 mi NW 10.4 mph - N/A   Clear
3:55 AM 21.6 °F 10.6 °F -6.9 °F 28% 30.34 in 10.0 mi NNW 10.4 mph - N/A   Clear
4:15 AM 21.2 °F 9.5 °F -8.0 °F 27% 30.34 in 10.0 mi North 11.5 mph - N/A   Clear
4:35 AM 20.7 °F 11.0 °F -7.6 °F 29% 30.34 in 10.0 mi North 8.1 mph - N/A   Clear
4:55 AM 22.1 °F 13.7 °F -7.6 °F 27% 30.35 in 10.0 mi North 6.9 mph - N/A   Clear
5:15 AM 20.7 °F 13.0 °F -7.2 °F 29% 30.35 in 10.0 mi North 5.8 mph - N/A   Clear
5:35 AM 21.9 °F 17.2 °F -7.2 °F 28% 30.36 in 10.0 mi WNW 3.5 mph - N/A   Clear
5:55 AM 16.7 °F 9.6 °F -8.3 °F 33% 30.37 in 10.0 mi NW 4.6 mph - N/A   Clear
6:15 AM 15.8 °F - -8.0 °F 34% 30.36 in 10.0 mi Calm Calm - N/A   Clear
6:35 AM 14.0 °F - -8.5 °F 36% 30.37 in 10.0 mi Calm Calm - N/A   Clear
6:55 AM 12.7 °F 6.7 °F -8.9 °F 38% 30.37 in 10.0 mi NNW 3.5 mph - N/A   Clear
7:15 AM 12.0 °F 5.9 °F -9.2 °F 38% 30.37 in 10.0 mi NW 3.5 mph - N/A   Clear
7:35 AM 11.5 °F -0.2 °F -8.7 °F 40% 30.37 in 10.0 mi NNW 8.1 mph - N/A   Clear
7:55 AM 16.9 °F 6.4 °F -6.5 °F 35% 30.38 in 10.0 mi NNW 8.1 mph - N/A   Unknown
8:15 AM 23.0 °F 15.8 °F -5.4 °F 29% 30.38 in 10.0 mi North 5.8 mph - N/A   Clear
8:35 AM 29.1 °F 25.4 °F -4.7 °F 23% 30.39 in 10.0 mi NNW 3.5 mph - N/A   Clear
8:55 AM 34.3 °F 31.4 °F -6.9 °F 17% 30.40 in 10.0 mi WNW 3.5 mph - N/A   Clear
9:15 AM 35.2 °F 32.4 °F -9.0 °F 15% 30.40 in 10.0 mi West 3.5 mph - N/A   Clear
9:35 AM 36.3 °F 33.7 °F -8.3 °F 15% 30.40 in 10.0 mi SW 3.5 mph - N/A   Clear
9:55 AM 38.3 °F 33.9 °F -8.0 °F 14% 30.42 in 10.0 mi SSW 5.8 mph - N/A   Clear
10:15 AM 38.5 °F - -8.5 °F 13% 30.41 in 10.0 mi Calm Calm - N/A   Clear
10:35 AM 40.6 °F - -8.1 °F 12% 30.41 in 10.0 mi Calm Calm - N/A   Clear
10:55 AM 42.4 °F - -7.2 °F 12% 30.41 in 10.0 mi Calm Calm - N/A   Clear
11:15 AM 44.2 °F 41.8 °F -6.9 °F 12% 30.40 in 10.0 mi SSE 4.6 mph - N/A   Clear
11:55 AM 46.4 °F 42.9 °F -8.1 °F 10% 30.39 in 10.0 mi ESE 6.9 mph - N/A   Clear
12:15 PM 48.2 °F - -8.3 °F 9% 30.39 in 10.0 mi SSE 9.2 mph - N/A   Clear
12:35 PM 48.7 °F - -9.4 °F 9% 30.38 in 10.0 mi SE 6.9 mph - N/A   Clear
12:55 PM 49.6 °F - -7.2 °F 9% 30.36 in 10.0 mi South 9.2 mph - N/A   Clear
1:15 PM 49.6 °F - -6.7 °F 10% 30.36 in 10.0 mi SSE 6.9 mph - N/A   Clear
1:35 PM 50.9 °F - -7.4 °F 9% 30.35 in 10.0 mi SSE 8.1 mph - N/A   Clear
1:55 PM 51.1 °F - -7.6 °F 9% 30.34 in 10.0 mi SSE 6.9 mph - N/A   Clear
2:15 PM 51.1 °F - -8.3 °F 8% 30.32 in 10.0 mi SE 9.2 mph - N/A   Clear
2:35 PM 51.8 °F - -8.1 °F 8% 30.32 in 10.0 mi South 5.8 mph - N/A   Clear
2:55 PM 52.2 °F - -8.1 °F 8% 30.32 in 10.0 mi ESE 10.4 mph - N/A   Clear
3:15 PM 52.7 °F - -8.1 °F 8% 30.31 in 10.0 mi SSE 8.1 mph - N/A   Clear
3:35 PM 52.3 °F - -8.3 °F 8% 30.31 in 10.0 mi SE 9.2 mph - N/A   Clear
3:55 PM 52.5 °F - -9.2 °F 8% 30.31 in 10.0 mi SE 6.9 mph - N/A   Clear
4:15 PM 52.0 °F - -8.9 °F 8% 30.30 in 10.0 mi SE 8.1 mph - N/A   Clear
4:35 PM 52.2 °F - -9.0 °F 8% 30.29 in 10.0 mi SSE 3.5 mph - N/A   Clear
4:55 PM 52.2 °F - -9.2 °F 8% 30.29 in 10.0 mi SE 5.8 mph - N/A   Clear
5:15 PM 51.8 °F - -9.4 °F 8% 30.29 in 10.0 mi SSE 5.8 mph - N/A   Clear
5:35 PM 50.9 °F - -9.2 °F 8% 30.28 in 10.0 mi SE 4.6 mph - N/A   Clear
5:55 PM 50.0 °F - -8.5 °F 9% 30.28 in 10.0 mi SE 5.8 mph - N/A   Clear
6:15 PM 47.3 °F - -7.6 °F 10% 30.28 in 10.0 mi SSE 3.5 mph - N/A   Clear
6:35 PM 44.4 °F 40.5 °F -6.9 °F 11% 30.28 in 10.0 mi SSE 6.9 mph - N/A   Clear
6:55 PM 42.3 °F 38.6 °F -7.6 °F 12% 30.29 in 10.0 mi SSE 5.8 mph - N/A   Clear
7:15 PM 41.9 °F 40.0 °F -8.0 °F 12% 30.29 in 10.0 mi SSE 3.5 mph - N/A   Clear
7:35 PM 42.6 °F 40.9 °F -8.3 °F 11% 30.29 in 10.0 mi SE 3.5 mph - N/A   Clear
7:55 PM 40.3 °F - -6.2 °F 14% 30.30 in 10.0 mi Calm Calm - N/A   Clear
8:15 PM 30.9 °F - -7.1 °F 19% 30.30 in 10.0 mi Calm Calm - N/A   Clear
8:35 PM 30.6 °F - -6.0 °F 21% 30.30 in 10.0 mi Calm Calm - N/A   Clear
8:55 PM 29.5 °F 25.9 °F -4.0 °F 24% 30.30 in 10.0 mi NE 3.5 mph - N/A   Clear
9:15 PM 28.9 °F 22.8 °F -4.5 °F 23% 30.30 in 10.0 mi NNE 5.8 mph - N/A   Clear
9:35 PM 29.3 °F 23.2 °F -4.0 °F 24% 30.31 in 10.0 mi NNE 5.8 mph - N/A   Clear
9:55 PM 29.1 °F 22.1 °F -4.0 °F 24% 30.31 in 10.0 mi North 6.9 mph - N/A   Clear
10:15 PM 28.9 °F 21.1 °F -3.6 °F 24% 30.31 in 10.0 mi North 8.1 mph - N/A   Clear
10:35 PM 28.4 °F 20.4 °F -3.6 °F 25% 30.31 in 10.0 mi North 8.1 mph - N/A   Clear
10:55 PM 28.4 °F 19.7 °F -4.0 °F 25% 30.30 in 10.0 mi North 9.2 mph - N/A   Clear
11:15 PM 28.8 °F 20.2 °F -3.8 °F 24% 30.30 in 10.0 mi North 9.2 mph - N/A   Clear
11:35 PM 29.3 °F 20.2 °F -3.8 °F 24% 30.29 in 10.0 mi North 10.4 mph - N/A   Clear
11:55 PM 28.9 °F 20.4 °F -3.6 °F 24% 30.30 in 10.0 mi North 9.2 mph - N/A   Clear